Погода Колпашево

Погода Колпашево : погода сейчас, прогноз погоды и архив. Всё, что Вы хотите узнать о погоде Колпашево!

Хотите узнать прогноз погоды Колпашево? Тогда Вам сюда: Погода Колпашево

Поиск расширенной информации на нашем сайте:

Другие новости

Новости СМИ2

Главная страница сайта

Новости сайта

02.10.2013

Напоминаем, что на нашем новом сайте вы можете получить высокодетализированные прогнозы погоды по пунктам России, СНГ и мира (включающие важные для авиации метеовеличины, такие как направление и скорость ветра, видимость, явления погоды, количество и форма облачности, нижняя и верхняя граница облачности), а также ознакомиться с разнообразными материалами по авиационной метеорологии и подборкой полезных ссылок на эту тему.

Сайт Метеоцентр.Азия посвящён разработке технологий оптимизации авиаметеорологического обслуживания, включая проектирование и перспективное создание нескольких автоматизированных авиаметеорологических систем:
- система выпуска высокодетальных прогностических карт явлений погоды для нижнего воздушного пространства по России и ближнему зарубежью;
- система верификации прогнозов TAF (выпускаемых синоптиками официальных АМСГ РФ и ближнего зарубежья) и AUTOTAF (выпускаемых сайтом Метеоцентр.Азия) - выявление ошибок, онлайн-сопоставление с фактической погодой METAR, автоматическое внесение коррективов в прогнозы при резком отклонении фактической погоды от прогноза, подсчёт оправдываемости прогнозов по элементам и в целом;
- система обработки, анализа и отображения авиаметеорологической информации для применения провайдерами метеорологической информации.

Рекомендуем: Видео и фото на свадьбу bachinskiy.kiev.ua.

Погода Колпашево - сегодня

Время (UTC), дата Ветер
(°,м/с) 
Видим.   Явления Облачность Т
(°С)
Тd
(°С)
f(%) Тe
(°С)
Pmin
(гПа)
dP
(гПа)
Po
(мм)
O2
(г/м3)
Тmin Tmax R s Состояние
почвы
12 26.04.17 130 (ЮВ) 20000 м    10/0 средняя 
[Ac As]
+17.8 +1.3 33 +19  1017.9  -2  757  286    +18.8       
15 26.04.17 тихо ()   20000 м    10/8 600 м средняя 
[Sc|As trans]
+10.9 +2.2 55 +11  1016.7  -1.5  756  292           
18 26.04.17 тихо ()   20000 м    8/4 1000 м средняя 
[Sc|Ac trans]
+7.7 +1.6 65 +8  1015.2  -1.6  754  295           
21 26.04.17 100 (В) 20000 м    6/3 300 м кучево-дожд., средняя 
[Cb cap|Ac trans]
+8.4 +2 64 +9  1012.9  -2.2  753  294           
00 27.04.17 120 (ЮВ) 20000 м    10/5 600 м верхняя 
[Sc|Ci fib]
+8.2 +2.6 68 +8  1010.3  -2.6  751  293  +7         
03 27.04.17 140 (ЮВ) 20000 м    9/0 верхняя 
[Ci sp]
+16.7 +3.5 41 +18  1007.8  -2.2  749  284           
06 27.04.17 160 (Ю) 5-10{10}  20000 м    8/0 верхняя 
[Ci fib]
+24.2 +1.2 22 +24  1004.9  -2.7  747  276           
09 27.04.17 250 (З) 3{11}  20000 м    9/4 600 м средняя, верхняя 
[Sc|Ac trans|Ci fib]
+22.6 +4.6 31 +23  1006.7  1.8  748  278           
12 27.04.17 300 (СЗ) 5-12{12}  20000 м    10/8 600 м кучево-дожд., средняя 
[Cb cap|Ac trans]
+11.3 +6.8 74 +10  1011  3.9  751  290    +25.7       
15 27.04.17 310 (СЗ) 5{12}  20000 м    10/10 240 м кучево-дожд. 
[Cb cap]
+4.5 +2.2 85 +2  1016  4.7  755  299           
18 27.04.17 310 (СЗ) 20000 м    10/10 210 м кучево-дожд. 
[Cb cap]
+3 +0.9 86 +1  1019  757  302           
21 27.04.17 310 (СЗ) 20000 м    10/10 210 м кучево-дожд. 
[Cb cap]
+1.4 -0.4 88 +1  1021.4  2.3  759  304           
00 28.04.17 330 (СЗ) 20000 м    10/10 240 м кучево-дожд. 
[Cb cap]
+0.8 -1.2 86 1023.1  1.7  760  306  +0.8         
03 28.04.17 340 (С) 20000 м    10/10 270 м кучево-дожд. 
[Cb cap]
+1 -1.2 85 +2  1024.1  0.9  761  306  +0.8         
06 28.04.17 070 (В) 20000 м    10/8 300 м кучево-дожд., средняя 
[Cb cap|Ac trans]
+2.8 -1 76 +4  1023.2  -0.8  760  303           
09 28.04.17 190 (Ю) 20000 м    8/0 верхняя 
[Ci fib]
+6.2 -0.1 64 +6  1020.5  -2.5  758  299           
12 28.04.17 290 (З) 10 км  дым  6/0 верхняя 
[Ci fib]
+7.2 +0.2 61 +8  1018.4  -2.1  757  297    +7.5       
15 28.04.17 220 (ЮЗ) 10 км  дым  3/0 средняя 
[Ac trans]
+5.2 +1 74 +6  1017.2  -1.2  756  299           
18 28.04.17 190 (Ю) 10 км  дым  3/0 средняя 
[Ac trans]
+3.3 +0.9 84 +4  1015.9  -1.4  755  300           
21 28.04.17 170 (Ю) 10 км  дым  3/0 средняя 
[Ac trans]
+2.6 +0.6 87 +2  1013.1  -2.8  753  300           
00 29.04.17 180 (Ю) 10 км  дым  9/8 600 м средняя, верхняя 
[Sc|Ac trans|Ci fib]
+4.8 +0.4 73 +4  1009.9  -3.1  750  297  +2.5         
03 29.04.17 220 (ЮЗ) 10 км  слаб. дождь  10/10 930 м 
[Sc]
+7.6 +1.3 64 +8  1009.3  -0.4  750  294           
06 29.04.17 290 (З) 10 км  слаб. ливневой дождь  10/10 500 м кучево-дожд. 
[Cb cap]
+5.6 +4.4 92 +5  1010.9  1.4  751  296           
09 29.04.17 240 (ЮЗ) 10 км  слаб. ливневой дождь  10/10 270 м кучево-дожд. 
[Cb cap]
+4.9 +3.7 92 +5  1011.9  752  297           
12 29.04.17 270 (З) 20000 м  {ливн. осадки}  8/3 300 м кучево-дожд., средняя, верхняя 
[Cb cap|Ac trans|Ci fib]
+6.5 +3.6 82 +6  1013  1.1  753  296    +8.2     
Время (UTC), дата Ветер
(°,м/с) 
Видим.   Явления Облачность Т
(°С)
Тd
(°С)
f(%) Тe
(°С)
Pmin
(гПа)
dP
(гПа)
Po
(мм)
O2
(г/м3)
Тmin Tmax R s Состояние
почвы

Для получения пояснительной информации подведите курсор к названию столбца.

ПОГОДА Колпашево - архив

Всё, что Вы хотите узнать о погоде Колпашево - удобно и подробно!

Выберите нужную дату (начиная с 1 января 2015* года) и нажмите кнопку "Найти".
Будут отображены архивные сводки погоды по пункту Колпашево, начиная с указанной даты.


Отображать данные в формате CSV (для использования в таблицах Excel)


Внимание! Наш архив погоды предназначен исключительно для личного некоммерческого использования в познавательных целях. Если Вам необходимы официальные справки о состоянии погоды (для производственных, юридических, коммерческих и т.п. целей), обращайтесь в органы Росгидромета.

*Примечание: данная дата относится к архиву по метеостанциям СССР (Россия, СНГ, Балтия).
Архив по метеостанциям Зарубежной Европы и Азии (кроме Китая) хранится 10 дней, по другим регионам земного шара (Китай, Африка, Америка, Австралия, Океания) - 1 день.

Колпашево - район местоположения метеостанции


Название, широта, долгота, высота метеостанции:
Колпашево 58.3°ш. 82.9°д. 75 м над ур. моря [Российская Федерация]

Дополнительная информация

В oтличие oт бoльшинства пoгoдных сайтoв мы публикуем пoдрoбную метеoинфoрмацию в детальнoм прoфессиoнальнoм фoрмате.

Характеристики температуры и влажнoсти вoздуха измеряются на высoте 2 м в тени вдали oт зданий и деревьев.
Скoрoсть ветра измеряется на высoте 10 м (на урoвне рoста челoвека скoрoсть ветра ниже в 1.5-2 раза). Если метеoстанция нахoдится в гoрoде или в лесу, тo скoрoсть ветра занижена на 2-4 м/с пo сравнению с oткрытым местoм. Скoрoсть ветра над акватoриями крупных рек и oзёр, а также на вершинах хoлмoв на 2-5 м/с выше, чем в oбычных услoвиях.
Атмoсфернoе давление в разных тoчках местнoсти мoжет значительнo oтличаться oт давления на метеoстанции, в зависимoсти oт услoвий рельефа (при пoдъёме на 10 м давление пoнижается примернo на 1 мм рт.ст.).